Location: Kapla
(46.2483°N, 15.0094°E)
Time: 20:59:25
(UTC+00:00)

FALCON 9 DEB - Pass Details

Date: 03 March 2021
Orbit: 366 x 384 km, 53.0° (Epoch: 22 April)

Event Time Altitude Azimuth Distance (km) Brightness Sun altitude
Rises 18:15:25 0° 294° (WNW) 2,297 8.3 -15.7°
Reaches altitude 10° 18:17:44 10° 309° (NW) 1,437 6.6 -16.1°
Maximum altitude 18:20:27 24° 7° (N) 855 4.6 -16.5°
Enters shadow 18:21:16 22° 31° (NNE) 919 4.5 -16.7°
